Flag for Italy Weather past 2 weeks in Bologna, Italy

Now
59 °F

Partly cloudy.


Feels Like: 58 °F
Forecast: 63 / 74 °F
Wind: 8 mph from Northwest

Location: Bologna / Borgo Panigale

Current Time: Sep 3, 2014 at 7:56:44 AM

Latest Report: Sep 3, 2014 at 7:20 AM


Visibility: 5 mi

Pressure: 29.95 "Hg

Humidity: 100%

Dew point: 59 °F

Location of BolognaLocation

Historic Weather in Bologna — Graph

°F

Bologna temperature yesterday

Maximum temperature yesterday: 73 °F (at 1:20 PM)
Minimum temperature yesterday: 57 °F (at 2:20 AM)
Average temperature yesterday: 66 °F

Past Weeks' High & Low Weather Summary

 TemperatureHumidityPressure
High86 °F (Aug 30, 3:20 PM)100% (Aug 20, 6:50 AM)30.07 "Hg (Aug 20, 6:50 AM)
Low57 °F (Sep 2, 2:20 AM)32% (Aug 21, 6:20 PM)29.65 "Hg (Aug 31, 11:20 PM)
Average71 °F70%29.92 "Hg
* Reported Aug 19 6:20 AM — Sep 3 6:20 AM, Bologna, Weather by CustomWeather, © 2014

Note: Actual official high and low records may vary slightly from our data, if they occured in-between our weather recording intervals... More about our weather records

Advertising

Bologna weather history for previous 24 hours

 ConditionsComfort  
Time TempWeatherWind HumidityBarometerVisibility
6:20 AM
Sep 3
61 °FPartly cloudy.7 mph94%29.95 "Hg5 mi
5:50 AM61 °FPartly cloudy.5 mph94%29.95 "Hg3 mi
5:20 AM61 °FPartly cloudy.3 mph94%29.92 "Hg2 mi
4:50 AM63 °FPassing clouds.3 mph83%29.92 "HgN/A
4:20 AM63 °FPassing clouds.6 mph83%29.92 "HgN/A
3:50 AM63 °FLight rain. Passing clouds.3 mph83%29.92 "HgN/A
3:20 AM63 °FLight rain. Passing clouds.5 mph83%29.92 "HgN/A
2:50 AM64 °FPassing clouds.5 mph73%29.92 "HgN/A
2:20 AM64 °FPassing clouds.3 mph73%29.92 "HgN/A
1:50 AM64 °FPassing clouds.No wind78%29.95 "HgN/A
1:20 AM64 °FPassing clouds.2 mph78%29.92 "HgN/A
12:50 AM63 °FPassing clouds.3 mph83%29.92 "HgN/A
12:20 AM63 °FPassing clouds.3 mph83%29.92 "HgN/A
11:50 PM
Sep 2
63 °FPassing clouds.5 mph83%29.92 "HgN/A
11:20 PM63 °FPassing clouds.3 mph83%29.92 "HgN/A
10:50 PM63 °FPassing clouds.5 mph83%29.92 "HgN/A
10:20 PM63 °FPassing clouds.3 mph77%29.92 "HgN/A
9:50 PM64 °FPassing clouds.6 mph78%29.92 "HgN/A
9:20 PM64 °FPassing clouds.2 mph78%29.92 "HgN/A
8:50 PM64 °FPassing clouds.3 mph78%29.92 "HgN/A
8:20 PM64 °FPassing clouds.5 mph78%29.89 "HgN/A
7:50 PM68 °FPassing clouds.6 mph69%29.89 "HgN/A
7:20 PM68 °FPassing clouds.3 mph73%29.89 "HgN/A
6:50 PM70 °FPassing clouds.8 mph64%29.89 "HgN/A
6:20 PM70 °FPassing clouds.7 mph69%29.89 "HgN/A
5:50 PM70 °FPassing clouds.8 mph64%29.89 "HgN/A
5:20 PM72 °FPassing clouds.7 mph61%29.89 "HgN/A
4:50 PM72 °FPassing clouds.7 mph61%29.89 "HgN/A
4:20 PM70 °FPassing clouds.7 mph64%29.89 "HgN/A
3:50 PM70 °FPassing clouds.10 mph69%29.89 "HgN/A
3:20 PM72 °FPassing clouds.10 mph69%29.89 "HgN/A
2:50 PM72 °FPassing clouds.14 mph61%29.89 "HgN/A
2:20 PM72 °FPassing clouds.15 mph61%29.89 "HgN/A
1:50 PM72 °FPassing clouds.14 mph61%29.89 "HgN/A
1:20 PM73 °FPassing clouds.13 mph50%29.89 "HgN/A
12:50 PM72 °FPassing clouds.7 mph50%29.89 "HgN/A
12:20 PM72 °FPassing clouds.5 mph50%29.89 "HgN/A
11:50 AM72 °FPassing clouds.5 mph50%29.89 "HgN/A
11:20 AM70 °FPassing clouds.8 mph53%29.89 "HgN/A
10:50 AM70 °FPassing clouds.10 mph53%29.86 "HgN/A
10:20 AM68 °FPassing clouds.12 mph56%29.86 "HgN/A
9:50 AM68 °FScattered clouds.10 mph60%29.86 "HgN/A
9:20 AM66 °FScattered clouds.8 mph60%29.86 "HgN/A
8:50 AM64 °FPassing clouds.6 mph64%29.83 "HgN/A
8:20 AM63 °FSunny.6 mph73%29.83 "Hg10 mi
7:50 AM61 °FSunny.3 mph77%29.83 "Hg10 mi
7:20 AM61 °FPassing clouds.5 mph77%29.83 "HgN/A
Weather by CustomWeather, © 2014

See weather overviewHow to use our weather pages